Regional Weather Roundup
Issued by NWS

Home | Current Version | Previous Version | Text Only | Print | Product List | Glossary On
Versions: 1 2 3 4 5 6 7 8 9 10 11 12 13 14 15 16 17 18 19 20 21 22 23 24 25 26 27 28 29 30 31 32 33 34 35 36 37 38 39 40 41 42 43 44 45 46 47 48 49 50
000
ASUS43 KLSX 211007
RWRMO

WEATHER SUMMARY FOR MISSOURI
NATIONAL WEATHER SERVICE SPRINGFIELD MO
400 AM CST TUE FEB 21 2017

NOTE: "FAIR" INDICATES FEW OR NO CLOUDS BELOW 12,000 FEET WITH NO
       SIGNIFICANT WEATHER AND/OR OBSTRUCTIONS TO VISIBILITY.
       CURRENT SKY AND/OR WEATHER CONDITIONS ARE NOT AVAILABLE FOR
       CHILLICOTHE AND FARMINGTON.

MOZ001>031-035>038-043-044-053-054-211100-
...NORTHERN AND WESTERN MISSOURI...

CITY           SKY/WX    TMP DP  RH WIND       PRES   REMARKS
KANSAS CTY INT CLOUDY    50  46  86 N9        29.95R
KANSAS C DTWN  PTCLDY    54  47  77 NW8       29.93S
LEE`S SUMMIT   CLOUDY    53  51  93 N6        29.93S
ST JOSEPH      PTCLDY    42  42 100 N7        29.97F
CHILLICOTHE      N/A     53  48  83 N8        29.94S
KIRKSVILLE     MOCLDY    54  51  90 N14       29.93F

$$
MOZ066>068-077>081-088>096-101>105-211100-
...SOUTHWEST MISSOURI...

CITY           SKY/WX    TMP DP  RH WIND       PRES   REMARKS
SPRINGFIELD    MOCLDY    56  54  93 CALM      29.88S
JOPLIN         CLOUDY    52  52 100 CALM      29.91R
BRANSON        CLOUDY    55  55 100 CALM      29.90R

$$
MOZ032>034-039>042-045>050-055>058-069>072-211100-
...CENTRAL MISSOURI...

CITY           SKY/WX    TMP DP  RH WIND       PRES   REMARKS
COLUMBIA       CLOUDY    57  57 100 E5        29.90F FOG
JEFFERSON CITY CLOUDY    57  57 100 E5        29.89F
ROLLA          FOG       55  55 100 CALM      29.91F VSB 1/2
SEDALIA        CLOUDY    55  53  93 CALM      29.93R
WHITEMAN AFB   CLOUDY    53  53 100 CALM      29.92R
WARRENSBURG    MOCLDY    50  48  93 W3        29.93R
OSAGE BEACH    CLOUDY    56  55  97 SE8       29.90F

$$
MOZ051-052-059>065-211100-
...EAST CENTRAL MISSOURI...

CITY           SKY/WX    TMP DP  RH WIND       PRES   REMARKS
ST LOUIS INTL  LGT RAIN  62  60  93 SW3       29.93S
SPIRIT OF STL  LGT RAIN  60  60 100 CALM      29.91S
ST CHARLES     CLOUDY    58  58 100 CALM      29.92R FOG

$$
MOZ072>076-082>087-097>100-106>115-211100-
...SOUTH CENTRAL AND SOUTHEAST MISSOURI...

CITY           SKY/WX    TMP DP  RH WIND       PRES   REMARKS
CAPE GIRARDEAU CLOUDY    56  52  86 CALM      29.92S
FARMINGTON     LGT RAIN  57  56  96 CALM      29.94S FOG
POPLAR BLUFF   LGT RAIN  58  57  97 NE6       29.91F FOG
WEST PLAINS    LGT RAIN  57  55  93 NE12      29.89F

$$



USA.gov is the U.S. government's official web portal to all federal, state and local government web resources and services.